Preview of NWS' New Version of Forecast
This preview is not operational and should not be used for support decisions.

Regional Weather Roundup (RWR)

Issued by National Weather Service (NWS)

                            
000
ASUS46 KSEW 161810
RWRWA 

WASHINGTON REGIONAL WEATHER ROUNDUP
NATIONAL WEATHER SERVICE SEATTLE WA
1100 AM PDT TUE APR 16 2019

NOTE:"FAIR" INDICATES FEW OR NO CLOUDS BELOW 12,000 FEET WITH NO 
SIGNIFICANT WEATHER AND/OR OBSTRUCTIONS TO VISIBILITY.

WAZ507-509-555>559-161900-
SEATTLE, TACOMA, EVERETT, AND VICINITY
  
CITY           SKY/WX    TMP DP  RH WIND       PRES   REMARKS
EVERETT        CLOUDY    50  42  74 S10       30.00R                  
6HR MIN TEMP:  43; 6HR MAX TEMP:  50;                                

BOEING FIELD   CLOUDY    53  43  68 SW5       30.01R                  
6HR MIN TEMP:  47; 6HR MAX TEMP:  53; 6HR PCP:  0.01;                

RENTON         CLOUDY    53  43  68 S3        30.00R                  
6HR MIN TEMP:  46; 6HR MAX TEMP:  53; 6HR PCP: TRACE;                

SEATAC AIRPORT CLOUDY    51  42  71 SW5       30.00R                  
6HR MIN TEMP:  46; 6HR MAX TEMP:  52; 6HR PCP: TRACE;                

JBLM-MCCHORD   CLOUDY    52  52 100 SW6       30.01R                  
6HR MIN TEMP:  45; 6HR MAX TEMP:  51;                                

PUYALLUP       CLOUDY    54  46  76 CALM      30.00R                  
BREMERTON      CLOUDY    50  43  77 S10       30.00R                  
6HR MIN TEMP:  43; 6HR MAX TEMP:  50; 6HR PCP: TRACE;                

JBLM-FT LEWIS  CLOUDY    52  51  99 S5        30.00R                  
6HR MIN TEMP:  45; 6HR MAX TEMP:  52; 6HR PCP: TRACE;                

TACOMA NARROWS CLOUDY    50  44  80 S3        30.02R                  
6HR MIN TEMP:  45; 6HR MAX TEMP:  50;                                

$$
 
WAZ001-503-506-510-514-515-161900-
NORTH INTERIOR
  
CITY           SKY/WX    TMP DP  RH WIND       PRES   REMARKS
BELLINGHAM     CLOUDY    50  40  68 S14       29.98R                  
6HR MIN TEMP:  39; 6HR MAX TEMP:  50;                                

FRIDAY HARBOR  CLOUDY    51  41  68 MISG      29.99R                  
6HR MIN TEMP:  42; 6HR MAX TEMP:  52;                                

EASTSOUND      CLOUDY    52  43  71 N5        29.98R                  
PORT ANGELES   CLOUDY    50  42  74 VRB3      29.98R                  
6HR MIN TEMP:  37; 6HR MAX TEMP:  50;                                

EDIZ HOOK      FAIR      48  41  77 CALM      29.99R                  
6HR MIN TEMP:  43; 6HR MAX TEMP:  48;                                

PORT TOWNSEND  FAIR      54  43  66 SE13G18   29.97R                  
NAS WHIDBEY    CLOUDY    55  42  61 SE10      30.03R                  
6HR MIN TEMP:  45; 6HR MAX TEMP:  56;                                

ARLINGTON      PTSUNNY   52  42  69 S10       30.01R                  
6HR MIN TEMP:  37; 6HR MAX TEMP:  53;                                

BURLINGTON     MOSUNNY   55  43  62 SE5G15    30.00R                  
$$
 
WAZ020-022-039-040-504-511-512-161900-
SOUTHWEST INTERIOR
  
CITY           SKY/WX    TMP DP  RH WIND       PRES   REMARKS
SHELTON        CLOUDY    52  43  71 VRB3      29.98R                  
6HR MIN TEMP:  45; 6HR MAX TEMP:  52;                                

OLYMPIA        CLOUDY    51  44  77 S8        30.01R                  
6HR MIN TEMP:  44; 6HR MAX TEMP:  51;                                

CHEHALIS       CLOUDY    54  45  71 S10       30.01R                  
KELSO          CLOUDY    52  46  80 S5        30.04R                  
6HR MIN TEMP:  45; 6HR MAX TEMP:  53; 6HR PCP:  0.01;                

VANCOUVER      CLOUDY    53  46  77 E5        30.03R                  
6HR MIN TEMP:  45; 6HR MAX TEMP:  53;                                

SCAPPOOSE, OR  CLOUDY    53  46  77 SE3       30.04R                  
6HR MIN TEMP:  46; 6HR MAX TEMP:  53; 6HR PCP: TRACE;                

PORTLAND, OR   PTSUNNY   54  46  74 E7        30.04R                  
6HR MIN TEMP:  46; 6HR MAX TEMP:  54; 6HR PCP: TRACE;                

$$
 
WAZ021-516-517-161900-
WASHINGTON COAST
  
CITY           SKY/WX    TMP DP  RH WIND       PRES   REMARKS
FORKS          CLOUDY    50  43  77 S9        29.98R                  
6HR MIN TEMP:  40; 6HR MAX TEMP:  50;                                

HOQUIAM        CLOUDY    51  47  86 VRB3      30.00R                  
6HR MIN TEMP:  40; 6HR MAX TEMP:  51;                                

ASTORIA, OR    CLOUDY    51  46  83 NE6       29.99R                  
6HR MIN TEMP:  43; 6HR MAX TEMP:  51; 6HR PCP:  0.02;                

$$
 
WAZ019-023-024-040-567>569-161900-
CASCADE MOUNTAINS AND COLUMBIA GORGE
  
CITY           SKY/WX    TMP DP  RH WIND       PRES   REMARKS
STAMPEDE PASS  NOT AVBL                                               
TROUTDALE, OR  CLOUDY    53  46  77 CALM      30.04R                  
6HR MIN TEMP:  45; 6HR MAX TEMP:  53; 6HR PCP:  0.01;                

HOOD RIVER, OR CLOUDY    54  43  66 MISG      30.01R                  
THE DALLES, OR CLOUDY    55  44  66 VRB3      30.00R                  
6HR MIN TEMP:  43; 6HR MAX TEMP:  55;                                

$$

WAZ026-027-041>044-520-521-161900-
EAST SLOPES
  
CITY           SKY/WX    TMP DP  RH WIND       PRES   REMARKS
OMAK           SUNNY     53  31  42 VRB3      29.92S                  
6HR MIN TEMP:  33; 6HR MAX TEMP:  53;                                

WENATCHEE      SUNNY     53  31  42 VRB6      29.93R                  
6HR MIN TEMP:  37; 6HR MAX TEMP:  53;                                

ELLENSBURG     SUNNY     55  34  45 VRB3      29.94R                  
6HR MIN TEMP:  38; 6HR MAX TEMP:  55;                                

YAKIMA         MOSUNNY   58  35  42 VRB5      29.95S                  
6HR MIN TEMP:  45; 6HR MAX TEMP:  58;                                

SUNNYSIDE ARPT CLEAR     56  39  53 SE6       29.97R                  
6HR MIN TEMP:  45; 6HR MAX TEMP:  56;                                

YAKIMA TC      FAIR      54  31  40 CALM      29.94R                  
6HR MIN TEMP:  43; 6HR MAX TEMP:  55;                                

$$

WAZ028-034-035-161900-
COLUMBIA BASIN
  
CITY           SKY/WX    TMP DP  RH WIND       PRES   REMARKS
EPHRATA        SUNNY     56  32  40 SW6       29.93S                  
6HR MIN TEMP:  40; 6HR MAX TEMP:  56;                                

MOSES LAKE     SUNNY     57  32  38 S8        29.95R                  
6HR MIN TEMP:  36; 6HR MAX TEMP:  57;                                

PASCO          PTSUNNY   58  41  53 SW9       29.99R                  
6HR MIN TEMP:  52; 6HR MAX TEMP:  59;                                

RICHLAND ARPT  PTCLDY    58  40  50 S5        29.98S                  
6HR MIN TEMP:  50; 6HR MAX TEMP:  58;                                

HERMISTON, OR  PTSUNNY   57  40  52 W9        29.98S                  
6HR MIN TEMP:  47; 6HR MAX TEMP:  57; 6HR PCP: TRACE;                

$$

WAZ036>038-161900-
NORTHEAST WASHINGTON
  
CITY           SKY/WX    TMP DP  RH WIND       PRES   REMARKS
SPOKANE GEIGER MOSUNNY   48  29  47 S3        29.92R                  
6HR MIN TEMP:  34; 6HR MAX TEMP:  48;                                

SPOKANE FELTS  SUNNY     50  32  50 SW5       29.93R                  
6HR MIN TEMP:  31; 6HR MAX TEMP:  50;                                

FAIRCHILD AFB  SUNNY     50  30  47 SW5       29.92R                  
6HR MIN TEMP:  33; 6HR MAX TEMP:  50;                                

COEURDALENE,ID SUNNY     49  31  49 CALM      29.93R                  
6HR MIN TEMP:  29; 6HR MAX TEMP:  49;                                

DEER PARK      SUNNY     49  31  49 VRB5      29.92R                  
6HR MIN TEMP:  27; 6HR MAX TEMP:  49;                                

$$

WAZ029>033-161900-
SOUTHEAST WASHINGTON
  
CITY           SKY/WX    TMP DP  RH WIND       PRES   REMARKS
PULLMAN        CLOUDY    47  39  74 W12       29.96R                  
6HR MIN TEMP:  40; 6HR MAX TEMP:  47;                                

LEWISTON, ID   CLOUDY    52  41  66 VRB3      29.96R                  
6HR MIN TEMP:  45; 6HR MAX TEMP:  52; 6HR PCP: TRACE;                

WALLA WALLA    CLOUDY    49  42  77 S13       30.00R                  
6HR MIN TEMP:  45; 6HR MAX TEMP:  49; 6HR PCP:  0.15;                

PENDLETON, OR  CLOUDY    48  40  73 S5        29.99R                  
6HR MIN TEMP:  43; 6HR MAX TEMP:  48; 6HR PCP:  0.01;                

$$